TimeMST,TemperatureF,Dew PointF,Humidity,Sea Level PressureIn,VisibilityMPH,Wind Direction,Wind SpeedMPH,Gust SpeedMPH,PrecipitationIn,Events,Conditions,WindDirDegrees,DateUTC
12:53 AM,8.1,3.0,80,30.53,10.0,SSE,8.1,-,N/A,,Clear,150,2013-01-20 07:53:00
1:53 AM,7.0,1.9,80,30.52,9.0,SSE,5.8,-,N/A,,Clear,150,2013-01-20 08:53:00
2:53 AM,10.0,1.9,70,30.49,10.0,South,6.9,-,N/A,,Clear,170,2013-01-20 09:53:00
3:53 AM,3.0,-2.0,80,30.51,10.0,SSE,8.1,-,N/A,,Clear,160,2013-01-20 10:53:00
4:53 AM,6.1,-0.0,76,30.51,10.0,SSE,6.9,-,N/A,,Clear,150,2013-01-20 11:53:00
5:53 AM,7.0,1.0,77,30.54,10.0,SSE,6.9,-,N/A,,Clear,160,2013-01-20 12:53:00
6:53 AM,7.0,-0.9,70,30.58,10.0,South,8.1,-,N/A,,Clear,170,2013-01-20 13:53:00
7:53 AM,6.1,-0.9,73,30.60,10.0,South,8.1,-,N/A,,Clear,170,2013-01-20 14:53:00
8:53 AM,10.0,1.9,70,30.59,10.0,SSE,8.1,-,N/A,,Clear,160,2013-01-20 15:53:00
9:53 AM,19.0,6.1,57,30.58,10.0,Calm,Calm,-,N/A,,Clear,0,2013-01-20 16:53:00
10:53 AM,26.1,6.1,43,30.53,10.0,Calm,Calm,-,N/A,,Clear,0,2013-01-20 17:53:00
11:53 AM,28.9,10.0,45,30.46,10.0,Calm,Calm,-,N/A,,Clear,0,2013-01-20 18:53:00
12:53 PM,30.9,12.9,47,30.44,10.0,Calm,Calm,-,N/A,,Clear,0,2013-01-20 19:53:00
1:53 PM,30.9,15.1,52,30.42,10.0,Calm,Calm,-,N/A,,Clear,0,2013-01-20 20:53:00
2:53 PM,33.1,14.0,46,30.39,10.0,Calm,Calm,-,N/A,,Clear,0,2013-01-20 21:53:00
3:53 PM,34.0,16.0,48,30.40,10.0,Calm,Calm,-,N/A,,Clear,0,2013-01-20 22:53:00
4:53 PM,30.9,15.1,52,30.40,10.0,Calm,Calm,-,N/A,,Clear,0,2013-01-20 23:53:00
5:53 PM,24.1,14.0,65,30.44,10.0,Calm,Calm,-,N/A,,Clear,0,2013-01-21 00:53:00
6:53 PM,18.0,10.9,74,30.48,10.0,SSE,5.8,-,N/A,,Clear,150,2013-01-21 01:53:00
7:53 PM,14.0,9.0,80,30.53,9.0,SE,6.9,-,N/A,,Clear,130,2013-01-21 02:53:00
8:53 PM,12.0,7.0,80,30.54,10.0,SE,6.9,-,N/A,,Clear,140,2013-01-21 03:53:00
9:53 PM,10.0,5.0,80,30.51,10.0,SSE,8.1,-,N/A,,Clear,150,2013-01-21 04:53:00
10:53 PM,10.0,3.0,73,30.48,10.0,SSE,6.9,-,N/A,,Clear,150,2013-01-21 05:53:00
11:53 PM,12.0,5.0,73,30.45,10.0,SSE,9.2,-,N/A,,Clear,160,2013-01-21 06:53:00